[[{"header":{"parameterUnit":"m.s-1","parameterCategory":1,"la1":30.2991,"la2":30.254,"lo1":-89.0895,"lo2":-89.0444,"dy":0.0017,"dx":0.0017,"nx":28,"ny":28,"refTime":"2025-04-07T03:00:00:Z","depth":0,"parameterNumber":2,"parameterNumberName":"U-component_of_WINDS"},"data":[0,0,0,0,0,0,0,0,0,0,0,0,0,0,0,0,0,0,0,0,0,0,0,0,0,0,0,0,0,0,0,0,0,0,0,0,0,0,0,0,0,0,0,0,0,0,0,0,0,0,0,0,0,0,0,0,0,0,1.7516,1.7517,0,1.7655,1.7657,1.7658,1.7662,1.766,1.7659,1.7657,1.7806,1.7812,1.7817,0,0,0,0,0,0,0,0,0,0,0,0,0,1.726,1.7265,1.7515,1.7517,1.7519,1.7655,1.7657,1.7659,1.7662,1.766,1.7658,1.7656,1.7804,1.7811,1.7818,0,0,0,0,0,0,0,0,0,0,0,0,0,1.7383,1.7266,1.7515,1.7537,1.754,1.7655,1.7657,1.7659,1.7663,1.766,1.7658,1.7655,1.7802,1.781,1.7819,1.7922,0,0,1.7844,1.7848,0,0,0,0,0,0,0,0,1.7376,1.7392,1.7532,1.7536,1.754,1.7638,1.7622,1.7748,1.7664,1.7617,1.7657,1.7654,1.7753,1.7765,1.7797,1.7929,1.7936,1.7845,1.785,1.7854,1.7856,0,0,0,0,0,0,0,1.7367,1.7386,1.7571,1.7534,1.7539,1.7543,1.7557,1.7646,1.7698,1.7621,1.7621,1.7637,1.7755,1.7789,1.7801,1.7938,1.7845,1.7852,1.7857,1.7861,1.8166,1.8169,0,0,0,0,0,0,1.7354,1.7379,1.7567,1.7575,1.7449,1.7549,1.7566,1.761,1.7697,1.7708,1.7639,1.7637,1.7776,1.7791,1.7806,1.7936,1.7854,1.7861,1.7866,1.8163,1.8167,1.817,0,0,0,0,0,0,1.7348,1.737,1.7561,1.7477,1.7502,1.7556,1.7606,1.7614,1.7648,1.7711,1.7721,1.7665,1.7775,1.7794,1.7894,1.7941,1.7865,1.7873,1.8159,1.8164,1.8169,1.8194,0,0,0,0,0,0,1.7341,1.7368,1.7406,1.7478,1.7506,1.7644,1.7609,1.7618,1.7662,1.766,1.7737,1.7748,1.7774,1.7881,1.7902,1.7951,1.7879,1.8156,1.8162,1.8167,1.8189,1.8199,1.8207,0,0,0,0,0,1.7331,1.7408,1.7408,1.743,1.7554,1.7646,1.7663,1.769,1.7665,1.7706,1.7747,1.7745,1.7932,1.7891,1.7915,1.7967,1.8153,1.816,1.8167,1.8185,1.8197,1.8207,0,0,0,0,0,0,1.7341,1.7418,1.7418,1.752,1.7577,1.7647,1.7698,1.7701,1.7767,1.7763,1.7796,1.7814,1.7913,1.795,1.7903,1.8074,1.804,1.8052,1.8046,1.8058,1.8066,1.8056,1.7886,0,0,0,0,0,1.7355,1.7421,1.7485,1.7569,1.7597,1.7643,1.7684,1.77,1.7761,1.7785,1.7833,1.7894,1.7967,1.8014,1.8084,1.8194,1.8213,1.8242,1.8251,1.8258,1.8269,1.8333,1.8347,1.8193,1.8193,1.8193,0,0,1.7385,1.7435,1.7474,1.7572,1.7618,1.7689,1.7663,1.7738,1.7791,1.7797,1.7894,1.7932,1.8003,1.8108,1.8157,1.8142,1.8315,1.8267,1.8272,1.8279,1.8341,1.8356,1.8369,1.8198,1.8197,1.8196,0,0,1.7475,1.7518,1.7593,1.764,1.7709,1.7739,1.7758,1.7828,1.7853,1.7951,1.7957,1.8023,1.8147,1.8198,1.824,1.8352,1.8355,1.8375,1.8422,1.8484,1.8496,1.8507,1.855,1.8564,1.8385,1.8385,1.8385,0,1.7503,1.7607,1.7633,1.7708,1.7753,1.776,1.7839,1.7884,1.7973,1.8005,1.7986,1.8144,1.8192,1.8311,1.8339,1.8372,1.8396,1.8366,1.8492,1.8503,1.8514,1.8555,1.8571,1.8387,1.8386,1.8386,1.8386,0,1.764,1.7713,1.7766,1.7851,1.7901,1.7978,1.8018,1.8067,1.808,1.8113,1.8214,1.8272,1.8355,1.8385,1.8398,1.8508,1.8496,1.8484,1.8451,1.853,1.857,1.8585,1.839,1.8389,1.8388,1.8388,0,0,1.7739,1.7838,1.7858,1.7898,1.7976,1.8034,1.8113,1.8193,1.8235,1.8298,1.8367,1.8473,1.8463,1.8511,1.853,1.8585,1.8674,1.8567,1.8569,1.8586,1.8801,1.8811,1.8828,1.8676,1.8679,1.8681,1.8796,0,1.7839,1.7977,1.8003,1.8125,1.8194,1.8203,1.8273,1.833,1.8364,1.843,1.8468,1.8544,1.8524,1.8553,1.8607,1.8651,1.8718,1.8643,1.8743,1.8746,1.8726,1.8848,1.8858,1.8963,1.8811,1.8814,1.8816,0,1.7974,1.8038,1.8166,1.8237,1.8267,1.8328,1.8406,1.8468,1.8534,1.8556,1.861,1.8624,1.8711,1.8673,1.8794,1.8743,1.8786,1.8814,1.8819,1.883,1.8786,1.8865,1.8997,1.9014,1.884,1.8838,1.8836,0,1.8036,1.8155,1.8247,1.8281,1.8366,1.8409,1.8447,1.8511,1.8559,1.8627,1.8659,1.8737,1.8781,1.8842,1.8879,1.8847,1.8998,1.8962,1.9021,1.902,1.9052,1.905,1.9195,1.9078,1.9077,1.9077,1.9077,0,1.8145,1.8223,1.8276,1.8333,1.8422,1.8454,1.8542,1.858,1.8638,1.8705,1.8719,1.8782,1.8825,1.8896,1.8925,1.9022,1.9041,1.9063,1.907,1.9063,1.906,1.9092,1.9086,1.9081,1.908,1.9079,1.9079,0,1.8229,1.8267,1.8369,1.8442,1.8462,1.8525,1.8588,1.8646,1.868,1.8766,1.8787,1.8843,1.8927,1.8969,1.9073,1.9093,1.9204,1.9206,1.9181,1.9184,1.9241,1.9235,1.9413,1.9439,1.9302,1.9303,1.9304,0,1.8297,1.8357,1.8436,1.8481,1.852,1.8592,1.8641,1.8675,1.8726,1.8808,1.8857,1.8941,1.901,1.9144,1.9196,1.9277,1.9282,1.9338,1.9294,1.9286,1.9285,1.9282,1.929,1.9347,1.9348,1.9349,1.935,0,1.8414,1.8431,1.8498,1.8574,1.8632,1.8693,1.8755,1.8791,1.8837,1.8894,1.8978,1.9032,1.9139,1.9224,1.9309,1.9352,1.936,1.9363,1.9381,1.9375,1.9359,1.9371,1.9204,1.9359,1.9358,1.9358,1.9357,1.9357,1.8494,1.8549,1.8614,1.869,1.874,1.8797,1.8855,1.8897,1.8968,1.9057,1.9074,1.9165,1.9234,1.9349,1.9394,1.9468,1.9456,1.9482,1.9489,1.9495,1.9499,1.9346,1.9484,1.9484,1.9484,1.9483,1.9483,0,1.8613,1.8656,1.8726,1.881,1.8872,1.8872,1.894,1.8992,1.9072,1.9134,1.9202,1.9302,1.9385,1.9443,1.9528,1.9577,1.9583,1.9598,1.9596,1.9606,1.9504,1.948,1.9592,1.9592,1.9592,1.9592,1.9592,1.9592,1.8683,1.8777,1.8801,1.8922,1.8965,1.9052,1.9092,1.9146,1.9197,1.9307,1.9375,1.9412,1.9474,1.9565,1.9642,1.9657,1.9689,1.9705,1.9721,1.9624,1.9613,1.9602,1.958,1.9711,1.9711,1.9817,1.9818,1.9819]},{"header":{"parameterUnit":"m.s-1","parameterCategory":1,"la1":30.2991,"la2":30.254,"lo1":-89.0895,"lo2":-89.0444,"dy":0.0017,"dx":0.0017,"nx":28,"ny":28,"refTime":"2025-04-07T03:00:00:Z","depth":0,"parameterNumber":3,"parameterNumberName":"V-component_of_WINDS"},"data":[0,0,0,0,0,0,0,0,0,0,0,0,0,0,0,0,0,0,0,0,0,0,0,0,0,0,0,0,0,0,0,0,0,0,0,0,0,0,0,0,0,0,0,0,0,0,0,0,0,0,0,0,0,0,0,0,0,0,-4.3318,-4.332,0,-4.3482,-4.3484,-4.3486,-4.3499,-4.3497,-4.3495,-4.3493,-4.366,-4.3665,-4.3671,0,0,0,0,0,0,0,0,0,0,0,0,0,-4.3017,-4.3022,-4.3318,-4.332,-4.3322,-4.3482,-4.3484,-4.3486,-4.3499,-4.3497,-4.3495,-4.3492,-4.3658,-4.3665,-4.3672,0,0,0,0,0,0,0,0,0,0,0,0,0,-4.3161,-4.3024,-4.3318,-4.3348,-4.3352,-4.3481,-4.3484,-4.3487,-4.3499,-4.3497,-4.3494,-4.3491,-4.3655,-4.3664,-4.3673,-4.3783,0,0,-4.3701,-4.3705,0,0,0,0,0,0,0,0,-4.3152,-4.3172,-4.3341,-4.3346,-4.3351,-4.3467,-4.3439,-4.3586,-4.35,-4.3443,-4.3493,-4.349,-4.3598,-4.3611,-4.3648,-4.3791,-4.3798,-4.3702,-4.3707,-4.3711,-4.3714,0,0,0,0,0,0,0,-4.3142,-4.3165,-4.3383,-4.3344,-4.335,-4.3353,-4.3371,-4.3467,-4.3533,-4.3448,-4.3449,-4.3469,-4.36,-4.3639,-4.3652,-4.38,-4.3702,-4.371,-4.3715,-4.3719,-4.4045,-4.4048,0,0,0,0,0,0,-4.3127,-4.3156,-4.3378,-4.3388,-4.3243,-4.3361,-4.338,-4.3432,-4.3532,-4.3545,-4.3471,-4.3469,-4.3625,-4.3641,-4.3658,-4.3794,-4.3711,-4.372,-4.3725,-4.4042,-4.4046,-4.4049,0,0,0,0,0,0,-4.312,-4.3146,-4.3371,-4.3273,-4.3301,-4.3369,-4.3427,-4.3437,-4.3476,-4.355,-4.3562,-4.3499,-4.3623,-4.3645,-4.3753,-4.38,-4.3724,-4.3732,-4.4038,-4.4043,-4.4047,-4.4067,0,0,0,0,0,0,-4.3112,-4.3144,-4.3186,-4.3273,-4.3307,-4.3463,-4.343,-4.3442,-4.3492,-4.3491,-4.3579,-4.3591,-4.3623,-4.3739,-4.3762,-4.3811,-4.3739,-4.4034,-4.404,-4.4046,-4.4063,-4.4072,-4.408,0,0,0,0,0,-4.3101,-4.3184,-4.3188,-4.3214,-4.336,-4.3465,-4.3484,-4.352,-4.3496,-4.3539,-4.3587,-4.3588,-4.3792,-4.375,-4.3776,-4.3829,-4.4031,-4.4038,-4.4045,-4.4059,-4.407,-4.408,0,0,0,0,0,0,-4.3098,-4.3196,-4.3201,-4.3315,-4.3382,-4.3467,-4.3522,-4.3531,-4.3605,-4.36,-4.3641,-4.3661,-4.3768,-4.3809,-4.3761,-4.3942,-4.3909,-4.3922,-4.391,-4.3922,-4.3931,-4.3917,-4.3747,0,0,0,0,0,-4.3112,-4.3189,-4.327,-4.3362,-4.3396,-4.3454,-4.35,-4.3523,-4.3593,-4.3621,-4.3677,-4.3745,-4.3825,-4.3876,-4.3953,-4.407,-4.409,-4.4119,-4.4128,-4.4135,-4.4145,-4.4212,-4.4226,-4.4073,-4.4072,-4.4072,0,0,-4.3138,-4.3201,-4.3247,-4.3364,-4.3418,-4.3497,-4.3477,-4.3561,-4.3621,-4.3634,-4.3739,-4.3783,-4.3862,-4.3975,-4.4027,-4.4013,-4.4192,-4.4144,-4.4149,-4.4155,-4.422,-4.4235,-4.4248,-4.4077,-4.4076,-4.4076,0,0,-4.3228,-4.3284,-4.3368,-4.3424,-4.3507,-4.3546,-4.3566,-4.3651,-4.3681,-4.3788,-4.38,-4.3872,-4.4008,-4.4064,-4.4111,-4.4227,-4.4231,-4.4251,-4.4296,-4.4361,-4.4373,-4.4384,-4.4425,-4.444,-4.4261,-4.4261,-4.4261,0,-4.3251,-4.3371,-4.341,-4.3495,-4.3546,-4.3564,-4.365,-4.3703,-4.3807,-4.3842,-4.3825,-4.3998,-4.4052,-4.418,-4.4209,-4.4246,-4.4271,-4.424,-4.4368,-4.4379,-4.439,-4.443,-4.4446,-4.4263,-4.4263,-4.4263,-4.4263,0,-4.3395,-4.3478,-4.3537,-4.3638,-4.3697,-4.3782,-4.3834,-4.3889,-4.3908,-4.3948,-4.4058,-4.4125,-4.4217,-4.4249,-4.4267,-4.438,-4.4369,-4.436,-4.4327,-4.4406,-4.4444,-4.446,-4.4266,-4.4265,-4.4265,-4.4264,0,0,-4.3483,-4.3609,-4.3629,-4.3677,-4.3773,-4.3838,-4.3925,-4.4017,-4.4063,-4.4136,-4.421,-4.4327,-4.432,-4.4373,-4.4398,-4.4455,-4.4544,-4.4439,-4.4441,-4.4456,-4.4673,-4.4679,-4.4696,-4.4548,-4.4551,-4.4554,-4.4667,0,-4.3583,-4.3738,-4.3778,-4.3911,-4.3989,-4.401,-4.4086,-4.4153,-4.4195,-4.4268,-4.4314,-4.4396,-4.4381,-4.4413,-4.4471,-4.452,-4.4588,-4.4513,-4.4617,-4.4621,-4.4595,-4.4716,-4.4721,-4.4824,-4.4682,-4.4685,-4.4686,0,-4.3719,-4.3796,-4.3937,-4.4025,-4.406,-4.4127,-4.4216,-4.4285,-4.4363,-4.439,-4.4451,-4.4472,-4.4564,-4.4529,-4.4658,-4.4607,-4.4652,-4.4684,-4.4689,-4.4698,-4.4657,-4.4728,-4.4857,-4.4872,-4.471,-4.4709,-4.4707,0,-4.3769,-4.3909,-4.4011,-4.4052,-4.4157,-4.4204,-4.4251,-4.4326,-4.438,-4.4457,-4.4493,-4.458,-4.4627,-4.4695,-4.4739,-4.471,-4.4865,-4.4833,-4.4889,-4.4888,-4.4919,-4.4916,-4.5056,-4.4951,-4.495,-4.495,-4.495,0,-4.3875,-4.396,-4.4036,-4.4098,-4.4195,-4.4242,-4.4336,-4.4383,-4.4451,-4.4524,-4.4548,-4.4616,-4.4671,-4.4747,-4.4783,-4.4884,-4.4906,-4.493,-4.4938,-4.4927,-4.4924,-4.4956,-4.4949,-4.4954,-4.4953,-4.4953,-4.4952,0,-4.3946,-4.4,-4.4113,-4.4205,-4.4231,-4.4298,-4.4377,-4.444,-4.4484,-4.4576,-4.4601,-4.467,-4.4761,-4.4813,-4.4927,-4.4951,-4.5064,-4.5069,-4.5037,-4.5041,-4.5094,-4.5088,-4.5259,-4.5284,-4.5162,-4.5163,-4.5164,0,-4.4008,-4.4075,-4.4176,-4.4227,-4.4274,-4.4356,-4.4412,-4.4461,-4.4518,-4.4614,-4.4666,-4.4759,-4.4835,-4.498,-4.504,-4.5129,-4.5135,-4.519,-4.5149,-4.5136,-4.5136,-4.513,-4.5138,-4.5196,-4.5197,-4.5198,-4.5198,0,-4.4115,-4.4139,-4.4218,-4.4309,-4.4375,-4.4448,-4.452,-4.4561,-4.4623,-4.4686,-4.478,-4.484,-4.4959,-4.5051,-4.5145,-4.5193,-4.5206,-4.5212,-4.5229,-4.5217,-4.5196,-4.5208,-4.5055,-4.5206,-4.5206,-4.5205,-4.5205,-4.5204,-4.4183,-4.4244,-4.4325,-4.4413,-4.4474,-4.4542,-4.4606,-4.466,-4.4739,-4.484,-4.4865,-4.4964,-4.5044,-4.5172,-4.5223,-4.5302,-4.5292,-4.5317,-4.5324,-4.5329,-4.533,-4.5186,-4.5319,-4.5319,-4.5319,-4.5319,-4.5319,0,-4.429,-4.4344,-4.4425,-4.4527,-4.4597,-4.4607,-4.4688,-4.4746,-4.4834,-4.4907,-4.4984,-4.5093,-4.5184,-4.5253,-4.5347,-4.5396,-4.5405,-4.5419,-4.5415,-4.5426,-4.5334,-4.5309,-4.5411,-4.5411,-4.5411,-4.5411,-4.5411,-4.5411,-4.4353,-4.4457,-4.4492,-4.4627,-4.4681,-4.4779,-4.4825,-4.4889,-4.4948,-4.507,-4.5146,-4.5191,-4.5264,-4.5363,-4.5447,-4.5466,-4.5498,-4.5511,-4.553,-4.5442,-4.5432,-4.5423,-4.5399,-4.5518,-4.5519,-4.5616,-4.5617,-4.5617]}]]